Location: Asheville, NC
(35.6000°N, 82.5500°W)
Time: 00:24:00
(UTC-04:00)

Vanguard 2 - Pass Details

Date: 16 March 2018
Orbit: 553 x 2939 km, 32.9° (Epoch: 22 June)

Event Time Altitude Azimuth Distance (km) Brightness Sun altitude
Rises 12:49:06 0° 259° (W) 5,611 11.9 51.1°
Reaches altitude 10° 12:52:20 10° 258° (WSW) 4,863 11.7 51.3°
Maximum altitude 13:07:34 81° 174° (S) 2,879 11.7 52.1°
Drops below altitude 10° 13:25:35 10° 91° (E) 5,619 12.1 52.7°
Sets 13:29:39 0° 91° (E) 6,484 12.3 52.8°
